This demonstration page uses our WeatherBlox Daily Observations layout. Learn more.

Left ArrowRight Arrow

Hourly Observations for January 14, 2017

Temp ( °F °C ) Dew Point ( °F °C ) Humidity (%) Winds ( mph kmh ) Pressure ( in mb ) Visibility ( mi km ) Precip ( " mm )
12:59 am 00:59 Mostly Cloudy 43 6.1 33 0.6 68 68 NNE 15 24 30.62 1037 10 16 0.00 0.00
1:59 am 01:59 Mostly Cloudy 43 6.1 33 0.6 68 68 NNE 15 24 30.62 1037 10 16 0.00 0.00
2:59 am 02:59 Mostly Cloudy 43 6.1 35 1.7 74 74 NNE 8 13 30.63 1037 10 16 0.00 0.00
3:59 am 03:59 Cloudy 44 6.7 33 0.6 65 65 NNE 10 17 30.62 1037 10 16 0.00 0.00
4:59 am 04:59 Cloudy 43 6.1 35 1.7 74 74 NNE 12 19 30.62 1037 10 16 0.00 0.00
5:59 am 05:59 Cloudy with Light Rain 42 5.6 36 2.2 79 79 NE 13 20 30.62 1037 10 16 0.00 0.03
6:59 am 06:59 Cloudy 43 6.1 34 1.1 71 71 ENE 14 22 30.61 1037 10 16 0.00 0.03
7:59 am 07:59 Cloudy with Light Rain 42 5.6 36 2.2 79 79 NE 8 13 30.63 1037 9 14 0.01 0.25
8:59 am 08:59 Cloudy 43 6.1 37 2.8 80 80 ENE 9 15 30.62 1037 9 14 0.00 0.03
9:59 am 09:59 Cloudy 44 6.7 38 3.3 79 79 ENE 7 11 30.60 1036 9 14 0.00 0.00
10:26 am 10:26 Cloudy 44 6.7 38 3.3 79 79 NNE 8 13 30.62 1037 9 14 0.00 0.00
10:59 am 10:59 Cloudy 44 6.7 38 3.3 79 79 NNE 10 17 30.59 1036 9 14 0.00 0.00
11:59 am 11:59 Cloudy 42 5.6 37 2.8 82 82 N 12 19 30.55 1035 9 14 0.00 0.00
12:59 pm 12:59 Cloudy 41 5 35 1.7 79 79 N 10 17 30.50 1033 9 14 0.00 0.00
1:59 pm 13:59 Cloudy 41 5 36 2.2 82 82 N 12 19 30.48 1032 9 14 0.00 0.00
2:19 pm 14:19 Cloudy with Drizzle 41 5 36 2.2 82 82 N 9 15 30.48 1032 6 10 0.00 0.03
2:59 pm 14:59 Cloudy 41 5 36 2.2 82 82 N 7 11 30.47 1032 9 14 0.00 0.03
3:37 pm 15:37 Cloudy 41 5 36 2.2 82 82 NNE 8 13 30.45 1031 9 14 0.00 0.00
3:59 pm 15:59 Cloudy 41 5 36 2.2 82 82 N 9 15 30.45 1031 9 14 0.00 0.00
4:13 pm 16:13 Cloudy 41 5 37 2.8 86 86 NNE 7 11 30.45 1031 9 14 0.00 0.00
4:59 pm 16:59 Cloudy 41 5 36 2.2 82 82 N 7 11 30.43 1030 9 14 0.00 0.00
5:59 pm 17:59 Cloudy 41 5 37 2.8 86 86 NNE 7 11 30.42 1030 10 16 0.00 0.00
6:59 pm 18:59 Cloudy 41 5 37 3 87 87 NNE 3 6 30.40 1029 9 14 0.00 0.00
7:59 pm 19:59 Cloudy 41 5 37 2.8 86 86 Calm 30.37 1029 9 14 0.00 0.00
8:59 pm 20:59 Cloudy 41 5 37 2.8 86 86 Calm 30.37 1029 9 14 0.00 0.00
9:59 pm 21:59 Cloudy 42 5.6 37 2.8 82 82 NNW 3 6 30.37 1028 9 14 0.00 0.00
10:29 pm 22:29 Cloudy with Light Rain 42 5.6 37 2.8 82 82 W 5 7 30.36 1028 7 11 0.00 0.03
10:59 pm 22:59 Cloudy with Light Rain 42 5.6 38 3.3 85 85 Calm 30.34 1028 8 13 0.00 0.03
11:59 pm 23:59 Cloudy 42 5.6 39 3.9 89 89 Calm 30.31 1026 7 11 0.00 0.03

Powered by AerisWeather